TimeCST,TemperatureF,Dew PointF,Humidity,Sea Level PressureIn,VisibilityMPH,Wind Direction,Wind SpeedMPH,Gust SpeedMPH,PrecipitationIn,Events,Conditions,WindDirDegrees,DateUTC
12:09 AM,30.2,28.4,93,29.89,1.0,ESE,11.5,-,0.01,Snow,Light Snow,110,2012-12-09 06:09:00
12:38 AM,30.2,28.4,93,29.88,2.5,ESE,12.7,-,0.01,Snow,Light Snow,110,2012-12-09 06:38:00
12:51 AM,30.2,28.4,93,29.88,3.0,ESE,13.8,20.7,0.01,Snow,Light Snow,110,2012-12-09 06:51:00
12:53 AM,30.9,28.9,92,29.92,3.0,ESE,13.8,20.7,0.01,Snow,Light Snow,110,2012-12-09 06:53:00
1:53 AM,32.0,28.9,88,29.92,6.0,SE,16.1,-,0.00,,Overcast,130,2012-12-09 07:53:00
2:53 AM,32.0,30.0,92,29.91,6.0,ESE,13.8,-,N/A,,Overcast,120,2012-12-09 08:53:00
3:53 AM,32.0,30.0,92,29.89,2.0,ESE,13.8,-,0.00,Snow,Light Snow,120,2012-12-09 09:53:00
4:02 AM,32.0,30.2,93,29.85,1.5,ESE,12.7,-,0.00,Snow,Light Snow,120,2012-12-09 10:02:00
4:27 AM,32.0,30.2,93,29.83,2.0,ESE,15.0,-,0.00,Snow,Light Snow,120,2012-12-09 10:27:00
4:46 AM,33.8,30.2,87,29.84,1.5,ESE,15.0,-,0.00,Snow,Light Snow,120,2012-12-09 10:46:00
4:53 AM,33.1,30.9,92,29.87,1.8,ESE,13.8,-,0.00,Snow,Light Snow,120,2012-12-09 10:53:00
5:19 AM,33.8,30.2,87,29.82,1.2,ESE,13.8,-,0.00,Snow,Light Snow,120,2012-12-09 11:19:00
5:48 AM,33.8,30.2,87,29.82,0.8,ESE,11.5,-,0.01,Snow,Light Snow,110,2012-12-09 11:48:00
5:53 AM,33.1,30.9,92,29.86,0.8,ESE,12.7,-,0.01,Snow,Light Snow,110,2012-12-09 11:53:00
6:53 AM,33.1,30.9,92,29.87,0.5,ESE,10.4,-,0.04,Fog-Snow,Snow,120,2012-12-09 12:53:00
7:53 AM,33.1,30.9,92,29.86,0.5,ESE,9.2,-,0.04,Fog-Snow,Snow,110,2012-12-09 13:53:00
8:53 AM,32.0,30.9,96,29.86,0.2,East,9.2,-,0.06,Fog-Snow,Heavy Snow,90,2012-12-09 14:53:00
9:40 AM,32.0,30.2,93,29.82,0.2,East,9.2,-,0.07,Fog-Snow,Heavy Snow,90,2012-12-09 15:40:00
9:49 AM,32.0,30.2,93,29.82,0.2,East,9.2,-,0.09,Fog-Snow,Heavy Snow,90,2012-12-09 15:49:00
9:53 AM,32.0,30.9,96,29.86,0.2,East,9.2,-,0.09,Fog-Snow,Heavy Snow,90,2012-12-09 15:53:00
10:53 AM,32.0,30.9,96,29.85,0.5,East,10.4,-,0.06,Fog-Snow,Snow,80,2012-12-09 16:53:00
11:53 AM,32.0,30.9,96,29.83,0.8,ENE,9.2,-,0.04,Snow,Light Snow,70,2012-12-09 17:53:00
12:15 PM,32.0,30.2,93,29.78,1.0,ENE,5.8,-,0.01,Snow,Light Snow,70,2012-12-09 18:15:00
12:47 PM,32.0,30.2,93,29.78,2.0,ENE,8.1,-,0.01,Snow,Light Snow,60,2012-12-09 18:47:00
12:53 PM,32.0,30.9,96,29.81,1.8,ENE,6.9,-,0.01,Snow,Light Snow,60,2012-12-09 18:53:00
1:34 PM,32.0,30.2,93,29.78,0.8,North,10.4,-,0.01,Snow,Light Snow,10,2012-12-09 19:34:00
1:53 PM,30.9,28.9,92,29.82,0.8,North,11.5,18.4,0.02,Snow,Light Snow,10,2012-12-09 19:53:00
2:53 PM,28.9,27.0,92,29.84,0.5,North,17.3,27.6,0.00,Fog-Snow,Light Snow,360,2012-12-09 20:53:00
3:53 PM,24.1,21.9,91,29.90,0.2,NNW,21.9,35.7,0.01,Fog-Snow,Snow,340,2012-12-09 21:53:00
4:53 PM,21.0,18.0,88,29.94,0.8,NNW,20.7,31.1,0.00,,Overcast,330,2012-12-09 22:53:00
5:07 PM,21.2,17.6,86,29.91,1.0,NNW,19.6,38.0,N/A,,Overcast,330,2012-12-09 23:07:00
5:44 PM,15.8,12.2,86,29.93,2.5,NW,19.6,28.8,N/A,,Overcast,320,2012-12-09 23:44:00
5:53 PM,15.1,12.0,88,29.99,3.0,NW,18.4,29.9,N/A,,Overcast,320,2012-12-09 23:53:00
6:16 PM,14.0,10.4,86,29.95,2.0,NW,18.4,24.2,N/A,,Overcast,320,2012-12-10 00:16:00
6:23 PM,14.0,10.4,86,29.95,1.5,NW,19.6,31.1,N/A,,Overcast,320,2012-12-10 00:23:00
6:41 PM,12.2,8.6,85,29.96,2.0,NW,16.1,26.5,N/A,,Overcast,320,2012-12-10 00:41:00
6:49 PM,12.2,8.6,85,29.96,1.8,NW,18.4,29.9,N/A,,Overcast,320,2012-12-10 00:49:00
6:53 PM,12.0,9.0,88,30.01,1.5,NW,18.4,29.9,N/A,,Overcast,320,2012-12-10 00:53:00
7:12 PM,12.2,8.6,85,29.97,2.0,NW,21.9,31.1,N/A,,Overcast,320,2012-12-10 01:12:00
7:30 PM,12.2,8.6,85,29.98,1.5,NW,19.6,29.9,N/A,,Overcast,320,2012-12-10 01:30:00
7:53 PM,10.9,7.0,84,30.04,1.5,NW,21.9,32.2,N/A,,Overcast,320,2012-12-10 01:53:00
8:34 PM,8.6,3.2,79,30.00,2.5,NW,17.3,32.2,N/A,,Haze,320,2012-12-10 02:34:00
8:53 PM,8.1,3.0,80,30.06,1.8,NW,19.6,29.9,N/A,,Haze,310,2012-12-10 02:53:00
9:12 PM,6.8,1.4,79,30.01,2.5,NW,21.9,32.2,N/A,,Haze,320,2012-12-10 03:12:00
9:43 PM,5.0,1.4,85,30.01,3.0,NW,23.0,29.9,N/A,,Overcast,320,2012-12-10 03:43:00
9:53 PM,5.0,-0.0,80,30.07,3.0,NW,19.6,31.1,N/A,,Haze,320,2012-12-10 03:53:00
10:18 PM,5.0,-0.4,78,30.02,4.0,NW,19.6,28.8,N/A,,Haze,310,2012-12-10 04:18:00
10:53 PM,3.9,-0.9,80,30.08,5.0,WNW,20.7,28.8,N/A,,Haze,300,2012-12-10 04:53:00
11:28 PM,3.2,-2.2,78,30.03,6.0,NW,17.3,27.6,N/A,,Haze,320,2012-12-10 05:28:00
11:53 PM,3.0,-2.0,80,30.09,9.0,WNW,16.1,-,N/A,,Mostly Cloudy,300,2012-12-10 05:53:00